EW4052 Weather Reports


Display with metric or nautical units.
time (UTC)temp
F
wind
direction
speed
MPH
gust
MPH
rain 1hr
in
rain 24hr
in
rain mn
in
humidity
%
barometer
mb
20260506160007 44 247 13.0 21.0 0.00 0.00 0.00 54 1017.0
20260506154505 44 254 14.0 20.0 0.00 0.00 0.00 60 1017.1
20260506153005 44 252 13.0 22.0 0.00 0.00 0.00 58 1017.0
20260506151504 44 272 7.0 17.0 0.00 0.00 0.00 57 1017.0
20260506150004 43 248 11.0 17.0 0.00 0.00 0.00 57 1016.9
20260506144501 43 263 10.0 18.0 0.00 0.00 0.00 58 1017.0
20260506143003 42 254 5.0 11.0 0.00 0.00 0.00 61 1017.0
20260506141605 41 241 5.0 12.0 0.00 0.00 0.00 62 1017.1
20260506140122 41 261 4.0 10.0 0.00 0.00 0.00 65 1017.0
20260506134600 40 248 4.0 7.0 0.00 0.00 0.00 64 1017.0
20260506133104 39 259 1.0 8.0 0.00 0.00 0.00 64 1016.9
20260506131557 39 257 2.0 9.0 0.00 0.00 0.00 67 1016.8
20260506130055 39 266 3.0 10.0 0.00 0.00 0.00 67 1016.8
20260506124556 38 259 1.0 9.0 0.00 0.00 0.00 69 1016.4
20260506123052 38 259 3.0 8.0 0.00 0.00 0.00 68 1016.4
20260506121551 38 250 4.0 10.0 0.00 0.00 0.00 69 1016.3
20260506120049 38 256 5.0 10.0 0.00 0.00 0.00 69 1016.0
20260506114553 38 259 4.0 10.0 0.00 0.00 0.00 69 1015.6
20260506113049 37 259 6.0 10.0 0.00 0.00 0.00 70 1015.6
20260506111542 37 265 3.0 8.0 0.00 0.00 0.00 69 1015.3
20260506110039 37 259 4.0 10.0 0.00 0.00 0.00 68 1015.1
20260506104545 38 258 4.0 9.0 0.00 0.00 0.00 68 1015.1
20260506103038 38 251 5.0 9.0 0.00 0.00 0.00 68 1015.1
20260506101544 38 260 3.0 7.0 0.00 0.00 0.00 68 1014.9
20260506100033 38 263 2.0 9.0 0.00 0.00 0.00 68 1014.7
20260506094533 38 257 6.0 10.0 0.00 0.00 0.00 67 1015.0
20260506093029 38 255 5.0 8.0 0.00 0.00 0.00 68 1014.9
20260506091528 38 268 4.0 9.0 0.00 0.00 0.00 68 1014.7
20260506090024 38 288 3.0 9.0 0.00 0.00 0.00 67 1014.5
20260506084533 38 288 5.0 9.0 0.00 0.00 0.00 68 1014.4
20260506083023 39 293 6.0 9.0 0.00 0.00 0.00 68 1014.3
20260506081523 39 291 4.0 9.0 0.00 0.00 0.00 67 1014.2
20260506073012 40 274 6.0 10.0 0.00 0.00 0.00 66 1014.0
20260506071510 40 279 7.0 0.0 0.00 0.00 0.00 64 1014.1
20260506061613 42 278 6.0 11.0 0.00 0.00 0.00 61 1013.7
20260506044540 44 288 5.0 12.0 0.00 0.00 0.00 58 1012.8
20260506043039 45 290 5.0 11.0 0.00 0.00 0.00 56 1012.8
20260506041539 45 289 7.0 12.0 0.00 0.00 0.00 56 1012.7
20260506040040 46 262 6.0 11.0 0.00 0.00 0.00 54 1012.7
20260506034536 46 278 7.0 13.0 0.00 0.00 0.00 53 1012.7
20260506033040 46 285 7.0 13.0 0.00 0.00 0.00 52 1012.6
20260506031535 47 271 6.0 11.0 0.00 0.00 0.00 52 1012.7
20260506030035 47 277 8.0 12.0 0.00 0.00 0.00 52 1012.6
20260506024534 48 287 7.0 12.0 0.00 0.00 0.00 50 1012.4
20260506023101 48 271 6.0 12.0 0.00 0.00 0.00 50 1012.2
20260506021532 49 272 8.0 14.0 0.00 0.00 0.00 50 1012.0
20260506020029 49 263 8.0 14.0 0.00 0.00 0.00 50 1011.8
20260506014523 49 270 8.0 12.0 0.00 0.00 0.00 46 1011.4
20260506013020 49 278 3.0 10.0 0.00 0.00 0.00 45 1011.3
20260506011518 50 289 4.0 10.0 0.00 0.00 0.00 46 1011.1
20260506010033 50 292 5.0 14.0 0.00 0.00 0.00 46 1010.8
20260506004516 50 250 11.0 17.0 0.00 0.00 0.00 44 1010.6
20260506003015 51 278 12.0 17.0 0.00 0.00 0.00 44 1010.5
20260506001514 51 275 11.0 16.0 0.00 0.00 0.00 42 1010.5
20260506000013 51 265 8.0 15.0 0.00 0.00 0.00 44 1010.3
20260505234531 51 286 8.0 14.0 0.00 0.00 0.00 43 1010.2
20260505233012 52 266 11.0 17.0 0.00 0.00 0.00 46 1010.2
20260505231512 52 270 9.0 15.0 0.00 0.00 0.00 47 1010.1
20260505230011 52 266 10.0 20.0 0.00 0.00 0.00 44 1010.2
20260505224511 52 235 11.0 17.0 0.00 0.00 0.00 43 1010.1
20260505223010 52 299 8.0 16.0 0.00 0.00 0.00 44 1010.0
20260505221609 52 298 7.0 14.0 0.00 0.00 0.00 43 1009.9
20260505220009 52 281 11.0 16.0 0.00 0.00 0.00 45 1010.0
20260505214509 52 264 12.0 17.0 0.00 0.00 0.00 44 1010.1
20260505213008 52 284 11.0 18.0 0.00 0.00 0.00 44 1010.2
20260505211506 53 252 12.0 17.0 0.00 0.00 0.00 47 1010.2
20260505210006 53 273 11.0 18.0 0.00 0.00 0.00 45 1010.0
20260505204506 52 250 13.0 19.0 0.00 0.00 0.00 46 1010.1
20260505203013 53 247 12.0 16.0 0.00 0.00 0.00 46 1010.3
20260505201504 53 248 14.0 17.0 0.00 0.00 0.00 46 1010.3
20260505200004 54 296 4.0 19.0 0.00 0.00 0.00 43 1010.3
20260505194503 54 286 9.0 17.0 0.00 0.00 0.00 43 1010.4
20260505193000 53 240 5.0 18.0 0.00 0.00 0.00 39 1010.4
20260505191600 53 273 1.0 15.0 0.00 0.00 0.00 36 1010.5
20260505190059 54 265 1.0 8.0 0.00 0.00 0.00 39 1010.6
20260505184556 52 265 1.0 16.0 0.00 0.00 0.00 41 1010.7
20260505183056 51 250 5.0 20.0 0.00 0.00 0.00 40 1010.6
20260505181554 52 280 5.0 14.0 0.00 0.00 0.00 43 1010.6
20260505180107 51 262 8.0 15.0 0.00 0.00 0.00 47 1010.7
20260505174603 51 236 6.0 14.0 0.00 0.00 0.00 43 1010.8
20260505173052 51 252 3.0 15.0 0.00 0.00 0.00 43 1010.7
20260505171550 52 300 3.0 13.0 0.00 0.00 0.00 45 1010.6
20260505170049 51 236 5.0 13.0 0.00 0.00 0.00 41 1010.6
20260505164550 50 241 9.0 17.0 0.00 0.00 0.00 46 1010.7
20260505163049 50 253 7.0 15.0 0.00 0.00 0.00 46 1010.5
20260505161548 50 255 4.0 9.0 0.00 0.00 0.00 47 1010.5